Location: Wildlife_Club
(35.6000°N, 81.4330°W)
Time: 14:50:30
(UTC-04:00)

A-11 Canister half - Pass Details

Date: 03 July 2019
Orbit: 1515 x 1685 km, 47.2° (Epoch: 15 July)

Event Time Altitude Azimuth Distance (km) Brightness Sun altitude
Rises 09:08:12 0° 243° (WSW) 4,931 11.2 32.6°
Reaches altitude 10° 09:11:24 10° 245° (WSW) 3,943 10.8 33.2°
Maximum altitude 09:21:33 72° 330° (NNW) 1,736 9.8 35.3°
Drops below altitude 10° 09:31:31 10° 55° (NE) 3,869 12.0 37.3°
Sets 09:34:38 0° 57° (ENE) 4,835 12.3 37.9°
